Location: Bauerbach
(50.4985°N, 10.3912°E)
Time: 09:21:53
(UTC+00:00)

Meteor 2-19 Rocket - Pass Details

Date: 13 January 2026
Orbit: 935 x 959 km, 82.5° (Epoch: 15 February)

Event Time Altitude Azimuth Distance (km) Brightness Sun altitude
Rises 06:15:53 0° 347° (NNW) 3,619 7.1 -9.0°
Reaches altitude 10° 06:18:24 10° 344° (NNW) 2,667 6.4 -8.7°
Maximum altitude 06:24:24 63° 266° (W) 1,047 4.5 -7.8°
Drops below altitude 10° 06:30:19 10° 187° (S) 2,640 7.0 -7.0°
Sets 06:32:49 0° 184° (S) 3,579 7.8 -6.6°
